Regional Weather Roundup
Issued by NWS

Home | Current Version | Previous Version | Graphics & Text | Print | Product List | Glossary Off
Versions: 1 2 3 4 5 6 7 8 9 10 11 12 13 14 15 16 17 18 19 20 21 22 23 24 25 26 27 28 29 30 31 32 33 34 35 36 37 38 39 40 41 42 43 44 45 46 47 48 49 50

000
ASUS43 KMKX 200211
RWRWI

WISCONSIN REGIONAL WEATHER ROUNDUP
NATIONAL WEATHER SERVICE MILWAUKEE/SULLIVAN WI
900 PM CDT THU OCT 19 2017

NOTE: "FAIR" INDICATES FEW OR NO CLOUDS BELOW 12,000 FEET WITH NO
SIGNIFICANT WEATHER AND/OR OBSTRUCTIONS TO VISIBILITY.

WIZ001-002-006>008-014>016-023>028-200300-
NORTHWEST WISCONSIN

CITY           SKY/WX    TMP DP  RH WIND       PRES   REMARKS
SUPERIOR ARPT  CLEAR     48  37  67 S3        29.91S
ASHLAND        CLEAR     54  34  46 S6        29.94S
HAYWARD        CLEAR     54  35  48 S6        29.96S
SIREN          CLEAR     60  35  39 S6        29.94S
CUMBERLAND     CLEAR     52  34  50 S7        29.97S
RICE LAKE      CLEAR     55  37  51 SE8       29.99S
CHETEK         CLEAR     56  38  50 SE7       29.98F
LADYSMITH      CLEAR     57  35  42 S7        30.01F
EAU CLAIRE     CLEAR     56  36  47 S7        29.99F
MENOMONIE      CLEAR     53  37  53 E6        29.99S
NEW RICHMOND   CLEAR     55  35  46 S8        29.96S
OSCEOLA        CLEAR     59  37  43 SE5       29.97S
$$

WIZ003>005-009-010-017-018-200300-
NORTH CENTRAL WISCONSIN

CITY           SKY/WX    TMP DP  RH WIND       PRES   REMARKS
MANITOWISH WTR PTCLDY    53  34  48 S7        30.00S
ARBOR VITAE    CLEAR     57  35  44 S8        30.01S
WOODRUFF       CLEAR     57  35  44 S8        30.01S
RHINELANDER    CLEAR     56  34  43 SW6       30.03F
EAGLE RIVER    CLEAR     53  30  41 S3        30.02S
LAND O LAKES   CLOUDY    54  31  42 S3        30.02F
PHILLIPS       CLEAR     55  35  47 S7        30.00S
TOMAHAWK       CLEAR     47  35  62 CALM      30.03F
MEDFORD        CLEAR     49  36  59 S7        30.03S
MERRILL        CLEAR     56  35  44 S5        30.05S
$$

WIZ029-030-035-036-043>047-200300-
CENTRAL WISCONSIN

CITY           SKY/WX    TMP DP  RH WIND       PRES   REMARKS
WAUSAU         CLEAR     54  35  48 SE3       30.04R
MOSINEE        CLEAR     50  36  57 S8        30.06F
MARSHFIELD     CLEAR     54  33  45 S8        30.04S
STEVENS POINT  CLEAR     51  35  53 S5        30.06F
WAUPACA        CLEAR     55  34  45 CALM      30.08S
WAUTOMA        CLEAR     56  36  47 S3        30.09S
WISC RAPIDS    CLEAR     56  36  47 S7        30.06F
CAMP DOUGLAS   CLEAR     54  36  50 S7        30.05F
$$

WIZ011>013-019>022-031-037>040-048>050-200300-
NORTHEAST WISCONSIN

CITY           SKY/WX    TMP DP  RH WIND       PRES   REMARKS
ANTIGO         CLEAR     49  35  57 S8        30.06S
SHAWANO        CLEAR     58  34  40 CALM      30.06S
OCONTO         CLEAR     50  40  69 CALM      30.06F
STURGEON BAY   CLEAR     54  39  57 S8        30.09S
GREEN BAY      CLEAR     56  38  50 S7        30.08F
MANITOWOC      CLEAR     52  37  56 S5        30.11S
APPLETON       PTCLDY    55  32  41 S9        30.07F
CLINTONVILLE   CLEAR     54  36  50 SW7       30.07S
OSHKOSH        CLEAR     53  37  54 S8        30.09F
$$

WIZ032>034-041-042-053>061-200300-
SOUTHWEST WISCONSIN

CITY           SKY/WX    TMP DP  RH WIND       PRES   REMARKS
LA CROSSE      CLEAR     59  40  49 S7        30.03S
SPARTA         CLEAR     45  38  75 CALM      30.06S
VIROQUA        CLEAR     59  37  44 S10       30.06F
BOSCOBEL       CLEAR     49  41  74 CALM      30.07F
PRAIRIE DU CHI CLEAR     57  36  44 E3        30.06S
PLATTEVILLE    PTCLDY    57  38  48 SE9       30.09F
$$

WIZ056-057-062-063-064-067-068-200300-
SOUTH CENTRAL WISCONSIN

CITY           SKY/WX    TMP DP  RH WIND       PRES   REMARKS
REEDSBURG      CLEAR     57  36  44 S3        30.08S
BARABOO/DELLS  CLEAR     57  33  41 S9        30.08S
LONE ROCK      CLEAR     48  42  80 E3        30.08F
MINERAL POINT  CLEAR     55  34  44 SE7       30.09F
MADISON        CLEAR     58  38  47 S6        30.10F
MIDDLETON      CLEAR     48  40  72 CALM      30.10F
WATERTOWN      CLEAR     53  36  53 SE5       30.11F
MONROE         CLEAR     59  32  36 S12       30.11F
JANESVILLE     MOCLDY    54  36  50 S7        30.12F
$$

WIZ051-052-058>065-066-070>072-200300-
SOUTHEAST WISCONSIN

CITY           SKY/WX    TMP DP  RH WIND       PRES   REMARKS
MILWAUKEE      PTCLDY    56  26  31 S7        30.15S
WAUKESHA       CLEAR     52  27  37 S9        30.15S
MILWAUKEE/TIMM CLEAR     54  21  28 S7        30.14F
RACINE         CLEAR     55  22  27 S7        30.16F
BURLINGTON     CLEAR     48  36  63 S3        30.14F
KENOSHA        CLEAR     52  26  36 S7        30.15F
FOND DU LAC    CLEAR     55  34  45 S7        30.10F
SHEBOYGAN      CLEAR     49  38  65 S7        30.11F
WEST BEND      CLEAR     52  32  46 S5        30.13S
JUNEAU         CLEAR     53  36  52 SE7       30.12F
$$

LSZ147-162-200300-
LAKE SUPERIOR

STATION/POSITION TIME  TEMP    WIND        PRES    WAVE
                       AIR SEA DIR/SP/G            HT/PER
                 (UTC) (F)     (DEG/KT/KT) (MB)    (FT/S)
W MID LAKE BUOY  0050   56 52              1013.2F   1/ 4
DEVILS ISLAND    0200   63     180/ 10/ 14 1013.0R
SAXON HARBOR     0140   54     210/  2/  4 1013.2S
$$

LMZ867-665-643>646-200300-
LAKE MICHIGAN

STATION/POSITION TIME  TEMP    WIND        PRES    WAVE
                       AIR SEA DIR/SP/G            HT/PER
                 (UTC) (F)     (DEG/KT/KT) (MB)    (FT/S)
S GREEN BAY BUOY 0200   60 58  180/ 12/ 14 1018.0
N MID LAKE BUOY  0150   59 58  210/ 16/ 17 1018.5R   3/ 5
NORTHPORT PIER   0140   55     180/  3/  7 1017.9F
KEWAUNEE LAKESHO 0142   54     190/  6/  8 1018.2F
SHEBOYGAN LAKESH 0200   58     210/ 13/ 15 1019.6F
PORT WASHINGTON  0130   56     220/  5/  8 1021.0S
MILWAUKEE LAKESH 0150   58     200/  8/ 10   N/A
S MID LAKE BUOY  0150   61 61  170/ 12/ 12 1021.4F   1/ 3
KENOSHA   LAKESH 0200   59     190/  9/ 12 1020.7
$$

TC  - TEMPERATURE IN CELSIUS
VSB - VISIBILITY IN STATUTE MILES
WCI - WIND CHILL INDEX
HX  - HEAT INDEX




USA.gov is the U.S. government's official web portal to all federal, state and local government web resources and services.